User: anonymous
Location: Ostrava
(49.8330°N, 18.2830°E)
Time: 02:45:36
(UTC+02:00)
Language:

NOAA 19 - Orbit

View from above orbital plane
View from above orbital plane
View from above satellite
View from above satellite

Ground track
Ground track

The orbit data is extracted from the following two-line orbital elements,

1 33591U 09005A   14114.48711106  .00000327  00000-0  20388-3 0  2094
2 33591 098.9413 059.6968 0012884 271.0297 197.7754 14.11698168268417
Epoch (UTC): 24 April 2014 11:41:26
Eccentricity: 0.0012884
inclination: 98.9413°
perigee height: 844 km
apogee height: 863 km
right ascension of ascending node: 59.6968°
argument of perigee: 271.0297°
revolutions per day: 14.11698168
mean anomaly at epoch: 197.7754°
orbit number at epoch: 26841

The dashed part of the orbit path shows where the satellite is in the earth's shadow,  

DLR